Home > Weather > Tamworth > Past weeks

Flag for Australia Weather for the Past 2 Weeks in Tamworth, New South Wales, Australia

Now
68 °F

Clear.


Feels Like: 68 °F
Forecast: 49 / 80 °F
Wind: No wind

Location: Tamworth Airport

Current Time: May 6, 2016 at 6:29:50 PM

Latest Report: May 6, 2016 at 6:00 PM


Visibility: N/A

Pressure: 30.07 "Hg

Humidity: 38%

Dew Point: 41 °F

Location of TamworthLocation

Historic Weather in Tamworth — Graph

°F

Tamworth Temperature Yesterday

Maximum temperature yesterday: 75 °F (at 2:30 PM)
Minimum temperature yesterday: 45 °F (at 6:00 AM)
Average temperature yesterday: 59 °F

High & Low Weather Summary for the Past Weeks

 TemperatureHumidityPressure
High84 °F (Apr 22, 12:30 PM)94% (May 1, 12:00 AM)30.39 "Hg (May 1, 12:00 AM)
Low45 °F (May 5, 6:00 AM)23% (Apr 22, 1:00 PM)29.89 "Hg (May 3, 1:30 PM)
Average64 °F62%30.16 "Hg
* Reported Apr 21 5:00 PM — May 6 5:00 PM, Tamworth, Weather by CustomWeather, © 2016

Note: Actual official high and low records may vary slightly from our data, if they occured in-between our weather recording intervals... More about our weather records

Advertising

Tamworth Weather History for the Previous 24 Hours

Scroll right to see more
 ConditionsComfort  
Time TempWeatherWind HumidityBarometerVisibility
5:00 PM
Fri, May 6
75 °FClear.No wind31%30.07 "HgN/A
4:30 PM75 °FClear.3 mph29%30.07 "HgN/A
4:00 PM77 °FSunny.2 mph26%30.07 "HgN/A
3:30 PM77 °FSunny.3 mph28%30.07 "HgN/A
3:00 PM77 °FSunny.6 mph28%30.07 "HgN/A
2:30 PM77 °FSunny.6 mph28%30.07 "HgN/A
2:00 PM77 °FSunny.6 mph28%30.07 "HgN/A
1:30 PM75 °FSunny.3 mph29%30.07 "HgN/A
1:00 PM75 °FSunny.7 mph29%30.09 "HgN/A
12:00 PM73 °FSunny.5 mph33%30.12 "HgN/A
11:30 AM73 °FSunny.3 mph36%30.12 "HgN/A
11:00 AM70 °FSunny.3 mph40%30.15 "HgN/A
10:30 AM68 °FSunny.2 mph43%30.15 "HgN/A
10:00 AM64 °FSunny.3 mph52%30.15 "HgN/A
9:30 AM63 °FSunny.2 mph56%30.18 "HgN/A
9:00 AM59 °FSunny.2 mph63%30.18 "HgN/A
8:00 AM52 °FSunny.No wind72%30.15 "HgN/A
7:30 AM52 °FSunny.6 mph77%30.15 "HgN/A
7:00 AM46 °FSunny.3 mph87%30.12 "HgN/A
6:00 AM45 °FSunny.5 mph87%30.12 "HgN/A
5:00 AM48 °FClear.7 mph82%30.09 "HgN/A
4:30 AM48 °FClear.8 mph82%30.09 "HgN/A
4:00 AM46 °FClear.6 mph87%30.09 "HgN/A
3:00 AM46 °FClear.6 mph87%30.09 "HgN/A
2:00 AM48 °FClear.5 mph82%30.09 "HgN/A
1:00 AM50 °FClear.5 mph76%30.09 "HgN/A
12:00 AM48 °FClear.5 mph82%30.09 "HgN/A
11:30 PM
Thu, May 5
48 °FClear.3 mph76%30.09 "HgN/A
11:00 PM52 °FClear.5 mph77%30.12 "HgN/A
10:30 PM54 °FClear.6 mph72%30.12 "HgN/A
10:00 PM52 °FClear.5 mph82%30.12 "HgN/A
9:00 PM54 °FClear.6 mph72%30.12 "HgN/A
8:00 PM59 °FClear.5 mph59%30.09 "HgN/A
7:30 PM59 °FClear.No wind59%30.09 "HgN/A
7:00 PM63 °FClear.No wind52%30.09 "HgN/A
6:30 PM63 °FClear.7 mph52%30.09 "HgN/A
6:00 PM63 °FClear.5 mph49%30.09 "HgN/A
Weather by CustomWeather, © 2016

See weather overviewHow to use our weather pages